When you browse on this site, cookies collect data to enhance your experience and personalize the content and advertising you see.
Visit our Privacy Policy to learn more. By continuing to use the site, you agree to this use of cookies and data.
  • In Czech Republic
  • List of Countries
  • For 7 days
  • Water Temperature
  • Weather Map
  • Weather Widgets
  • user-avatar
    Login

    Hourly Weather Eisenstadt

    Today, 22 August, Thursday

    Time Temperature Precipitation Wind Pressure Humidity
    00:00 +14°C° 0.1 mm 3 mps 729 mmHg 78%
    01:00 +14°C° 0.1 mm 3 mps 729 mmHg 79%
    02:00 +14°C° 0.1 mm 3 mps 729 mmHg 81%
    03:00 +14°C° 0.1 mm 3 mps 729 mmHg 83%
    04:00 +14°C° 0.1 mm 2 mps 728 mmHg 85%
    05:00 +15°C° 0.1 mm 2 mps 729 mmHg 84%
    06:00 +16°C° 0.1 mm 2 mps 729 mmHg 82%
    07:00 +16°C° 0.1 mm 2 mps 729 mmHg 81%
    08:00 +18°C° 0.1 mm 2 mps 729 mmHg 73%
    09:00 +20°C° 0.1 mm 2 mps 729 mmHg 66%
    10:00 +23°C° 0.1 mm 2 mps 729 mmHg 59%
    11:00 +24°C° 0 mm 2 mps 729 mmHg 56%
    12:00 +25°C° 0 mm 2 mps 729 mmHg 53%
    13:00 +26°C° 0 mm 2 mps 729 mmHg 50%
    14:00 +26°C° 0.1 mm 2 mps 728 mmHg 52%
    15:00 +25°C° 0.1 mm 2 mps 728 mmHg 54%
    16:00 +25°C° 0.1 mm 2 mps 728 mmHg 56%
    17:00 +24°C° 0 mm 1 mps 728 mmHg 63%
    18:00 +22°C° 0 mm 1 mps 728 mmHg 69%
    19:00 +20°C° 0 mm 1 mps 727 mmHg 76%
    20:00 +20°C° 0 mm 1 mps 728 mmHg 76%
    21:00 +20°C° 0 mm 1 mps 728 mmHg 77%
    22:00 +19°C° 0 mm 1 mps 728 mmHg 77%
    23:00 +19°C° 0 mm 1 mps 728 mmHg 78%

    Tomorrow, 23 August, Friday

    Time Temperature Precipitation Wind Pressure Humidity
    00:00 +19°C° 0 mm 1 mps 728 mmHg 78%
    01:00 +18°C° 0 mm 1 mps 728 mmHg 78%
    02:00 +18°C° 0.1 mm 1 mps 728 mmHg 80%
    03:00 +18°C° 0.1 mm 1 mps 728 mmHg 82%
    04:00 +18°C° 0.1 mm 1 mps 728 mmHg 83%
    05:00 +19°C° 0 mm 1 mps 728 mmHg 81%
    06:00 +19°C° 0 mm 1 mps 728 mmHg 79%
    07:00 +20°C° 0 mm 1 mps 728 mmHg 77%
    08:00 +22°C° 0 mm 1 mps 729 mmHg 71%
    09:00 +23°C° 0 mm 1 mps 729 mmHg 66%
    10:00 +25°C° 0 mm 1 mps 729 mmHg 60%
    11:00 +26°C° 0 mm 1 mps 729 mmHg 59%
    12:00 +27°C° 0 mm 1 mps 728 mmHg 57%
    13:00 +27°C° 0 mm 1 mps 728 mmHg 56%
    14:00 +27°C° 0 mm 2 mps 728 mmHg 57%
    15:00 +27°C° 0 mm 2 mps 727 mmHg 58%
    16:00 +27°C° 0 mm 2 mps 727 mmHg 59%
    17:00 +26°C° 0 mm 1 mps 727 mmHg 66%
    18:00 +24°C° 0 mm 1 mps 727 mmHg 72%
    19:00 +23°C° 0 mm 1 mps 726 mmHg 79%
    20:00 +22°C° 0.1 mm 1 mps 726 mmHg 79%
    21:00 +22°C° 0.1 mm 1 mps 727 mmHg 79%
    22:00 +21°C° 0.1 mm 1 mps 727 mmHg 80%
    23:00 +21°C° 0.3 mm 1 mps 726 mmHg 81%

    Day after tomorrow, 24 August, Saturday

    Time Temperature Precipitation Wind Pressure Humidity
    00:00 +21°C° 0.3 mm 1 mps 726 mmHg 82%
    01:00 +21°C° 0.3 mm 1 mps 726 mmHg 83%
    02:00 +20°C° 0 mm 1 mps 726 mmHg 84%
    03:00 +20°C° 0 mm 1 mps 726 mmHg 84%
    04:00 +20°C° 0 mm 1 mps 726 mmHg 85%
    05:00 +21°C° 0 mm 1 mps 726 mmHg 82%
    06:00 +20°C° 0 mm 0 mps 726 mmHg 79%
    07:00 +21°C° 0 mm 0 mps 726 mmHg 76%
    08:00 +25°C° 0 mm 1 mps 726 mmHg 68%
    09:00 +26°C° 0 mm 1 mps 726 mmHg 61%
    10:00 +28°C° 0 mm 1 mps 727 mmHg 53%
    11:00 +29°C° 0.2 mm 2 mps 726 mmHg 51%
    12:00 +30°C° 0.2 mm 2 mps 726 mmHg 49%
    13:00 +31°C° 0.2 mm 2 mps 726 mmHg 47%
    14:00 +31°C° 0.5 mm 2 mps 725 mmHg 47%
    15:00 +30°C° 0.5 mm 2 mps 725 mmHg 48%
    16:00 +30°C° 0.5 mm 2 mps 725 mmHg 48%
    17:00 +28°C° 0.3 mm 2 mps 724 mmHg 56%
    18:00 +26°C° 0.3 mm 1 mps 724 mmHg 63%
    19:00 +24°C° 0.3 mm 1 mps 724 mmHg 70%
    20:00 +23°C° 0.5 mm 1 mps 724 mmHg 74%
    21:00 +22°C° 0.5 mm 1 mps 724 mmHg 77%
    22:00 +21°C° 0.5 mm 1 mps 725 mmHg 80%
    23:00 +21°C° 0.3 mm 1 mps 724 mmHg 81%

    25 August, Sunday

    Time Temperature Precipitation Wind Pressure Humidity
    00:00 +21°C° 0.3 mm 1 mps 724 mmHg 82%
    01:00 +20°C° 0.3 mm 1 mps 724 mmHg 83%
    02:00 +20°C° 0 mm 1 mps 724 mmHg 83%
    03:00 +20°C° 0 mm 1 mps 724 mmHg 83%
    04:00 +18°C° 0 mm 0 mps 724 mmHg 83%
    05:00 +19°C° 0 mm 0 mps 724 mmHg 81%
    06:00 +20°C° 0 mm 0 mps 724 mmHg 79%
    07:00 +21°C° 0 mm 0 mps 724 mmHg 78%
    08:00 +24°C° 0.3 mm 1 mps 725 mmHg 72%
    09:00 +25°C° 0.3 mm 1 mps 725 mmHg 66%
    10:00 +27°C° 0.3 mm 1 mps 725 mmHg 60%
    11:00 +28°C° 0.5 mm 2 mps 725 mmHg 57%
    12:00 +29°C° 0.5 mm 2 mps 725 mmHg 54%
    13:00 +30°C° 0.5 mm 2 mps 725 mmHg 51%
    14:00 +30°C° 0.5 mm 2 mps 724 mmHg 52%
    15:00 +29°C° 0.5 mm 2 mps 724 mmHg 53%
    16:00 +29°C° 0.5 mm 2 mps 724 mmHg 54%
    17:00 +28°C° 0.1 mm 1 mps 724 mmHg 59%
    18:00 +26°C° 0.1 mm 1 mps 724 mmHg 64%
    19:00 +24°C° 0.1 mm 1 mps 724 mmHg 69%
    20:00 +24°C° 0.4 mm 1 mps 724 mmHg 70%
    21:00 +23°C° 0.4 mm 1 mps 724 mmHg 72%
    22:00 +22°C° 0.4 mm 1 mps 725 mmHg 74%
    23:00 +22°C° 0.4 mm 1 mps 725 mmHg 76%

    26 August, Monday

    Time Temperature Precipitation Wind Pressure Humidity
    00:00 +21°C° 0.4 mm 1 mps 724 mmHg 78%
    01:00 +21°C° 0.4 mm 1 mps 724 mmHg 80%
    02:00 +21°C° 0.2 mm 1 mps 724 mmHg 81%
    03:00 +21°C° 0.2 mm 1 mps 724 mmHg 82%
    04:00 +20°C° 0.2 mm 1 mps 724 mmHg 83%
    05:00 +21°C° 0 mm 1 mps 725 mmHg 81%
    06:00 +22°C° 0 mm 1 mps 725 mmHg 80%
    07:00 +23°C° 0 mm 1 mps 726 mmHg 78%
    08:00 +25°C° 0.1 mm 1 mps 726 mmHg 70%
    09:00 +27°C° 0.1 mm 1 mps 726 mmHg 63%
    10:00 +28°C° 0.1 mm 1 mps 726 mmHg 55%
    11:00 +29°C° 0.1 mm 1 mps 726 mmHg 52%
    12:00 +30°C° 0.1 mm 1 mps 726 mmHg 49%
    13:00 +31°C° 0.1 mm 1 mps 726 mmHg 46%
    14:00 +31°C° 0.1 mm 1 mps 726 mmHg 45%
    15:00 +31°C° 0.1 mm 1 mps 726 mmHg 45%
    16:00 +31°C° 0.1 mm 1 mps 726 mmHg 44%
    17:00 +29°C° 0 mm 1 mps 725 mmHg 50%
    18:00 +27°C° 0 mm 1 mps 725 mmHg 55%
    19:00 +25°C° 0 mm 1 mps 725 mmHg 61%
    20:00 +24°C° 0.2 mm 1 mps 725 mmHg 63%
    21:00 +24°C° 0.2 mm 1 mps 725 mmHg 64%
    22:00 +23°C° 0.2 mm 1 mps 726 mmHg 66%
    23:00 +23°C° 0 mm 1 mps 726 mmHg 67%

    27 August, Tuesday

    Time Temperature Precipitation Wind Pressure Humidity
    00:00 +22°C° 0 mm 1 mps 726 mmHg 68%
    01:00 +22°C° 0 mm 1 mps 725 mmHg 69%
    02:00 +22°C° 0 mm 1 mps 725 mmHg 69%
    03:00 +21°C° 0 mm 1 mps 725 mmHg 70%
    04:00 +21°C° 0 mm 1 mps 725 mmHg 70%
    05:00 +22°C° 0 mm 1 mps 725 mmHg 69%
    06:00 +23°C° 0 mm 1 mps 725 mmHg 68%
    07:00 +24°C° 0 mm 1 mps 726 mmHg 67%
    08:00 +26°C° 0 mm 1 mps 726 mmHg 60%
    09:00 +27°C° 0 mm 1 mps 726 mmHg 54%
    10:00 +29°C° 0 mm 2 mps 726 mmHg 47%
    11:00 +30°C° 0 mm 2 mps 726 mmHg 43%
    12:00 +31°C° 0 mm 2 mps 726 mmHg 39%
    13:00 +33°C° 0 mm 3 mps 725 mmHg 35%
    14:00 +32°C° 0 mm 2 mps 725 mmHg 36%
    15:00 +32°C° 0 mm 2 mps 725 mmHg 37%
    16:00 +32°C° 0 mm 2 mps 724 mmHg 37%
    17:00 +30°C° 0 mm 2 mps 724 mmHg 42%
    18:00 +28°C° 0 mm 2 mps 724 mmHg 47%
    19:00 +26°C° 0 mm 1 mps 723 mmHg 52%
    20:00 +25°C° 0 mm 1 mps 723 mmHg 53%
    21:00 +24°C° 0 mm 1 mps 724 mmHg 54%
    22:00 +24°C° 0 mm 1 mps 724 mmHg 55%
    23:00 +23°C° 0 mm 1 mps 723 mmHg 57%
    Show more